TimePDT,TemperatureF,Dew PointF,Humidity,Sea Level PressureIn,VisibilityMPH,Wind Direction,Wind SpeedMPH,Gust SpeedMPH,PrecipitationIn,Events,Conditions,WindDirDegrees,DateUTC
12:10 AM,41.0,23.0,49,30.24,10.0,North,5.8,-,N/A,,Clear,360,2013-05-20 07:10:00
12:30 AM,41.0,23.0,49,30.24,10.0,Calm,Calm,-,N/A,,Clear,0,2013-05-20 07:30:00
12:50 AM,37.4,24.8,60,30.24,10.0,ENE,5.8,-,N/A,,Clear,60,2013-05-20 07:50:00
1:10 AM,35.6,24.8,65,30.24,10.0,Calm,Calm,-,N/A,,Clear,0,2013-05-20 08:10:00
1:30 AM,33.8,24.8,70,30.24,10.0,Calm,Calm,-,N/A,,Clear,0,2013-05-20 08:30:00
1:50 AM,32.0,23.0,69,30.24,10.0,Calm,Calm,-,N/A,,Scattered Clouds,0,2013-05-20 08:50:00
2:10 AM,32.0,24.8,75,30.24,10.0,Calm,Calm,-,N/A,,Partly Cloudy,0,2013-05-20 09:10:00
2:30 AM,30.2,23.0,75,30.25,10.0,Calm,Calm,-,N/A,,Clear,0,2013-05-20 09:30:00
2:50 AM,32.0,23.0,69,30.24,10.0,Calm,Calm,-,N/A,,Clear,0,2013-05-20 09:50:00
3:10 AM,28.4,23.0,80,30.25,10.0,Calm,Calm,-,N/A,,Clear,0,2013-05-20 10:10:00
3:30 AM,28.4,23.0,80,30.25,10.0,SSE,3.5,-,N/A,,Clear,160,2013-05-20 10:30:00
3:50 AM,30.2,23.0,75,30.25,10.0,South,4.6,-,N/A,,Clear,180,2013-05-20 10:50:00
4:10 AM,28.4,23.0,80,30.26,10.0,SW,4.6,-,N/A,,Clear,220,2013-05-20 11:10:00
4:30 AM,30.2,23.0,75,30.26,10.0,South,3.5,-,N/A,,Clear,170,2013-05-20 11:30:00
4:50 AM,28.4,23.0,80,30.26,10.0,Calm,Calm,-,N/A,,Clear,0,2013-05-20 11:50:00
5:10 AM,26.6,23.0,86,30.26,10.0,Calm,Calm,-,N/A,,Clear,0,2013-05-20 12:10:00
5:30 AM,28.4,23.0,80,30.27,10.0,South,5.8,-,N/A,,Clear,170,2013-05-20 12:30:00
5:50 AM,28.4,23.0,80,30.27,10.0,Calm,Calm,-,N/A,,Clear,0,2013-05-20 12:50:00
6:10 AM,32.0,24.8,75,30.28,10.0,Calm,Calm,-,N/A,,Clear,0,2013-05-20 13:10:00
6:30 AM,33.8,26.6,75,30.28,10.0,Calm,Calm,-,N/A,,Clear,0,2013-05-20 13:30:00
6:50 AM,39.2,28.4,65,30.29,10.0,Calm,Calm,-,N/A,,Clear,0,2013-05-20 13:50:00
7:10 AM,42.8,28.4,57,30.29,10.0,Calm,Calm,-,N/A,,Clear,0,2013-05-20 14:10:00
7:30 AM,44.6,28.4,53,30.30,10.0,Calm,Calm,-,N/A,,Clear,0,2013-05-20 14:30:00
7:50 AM,46.4,28.4,50,30.30,10.0,NE,5.8,-,N/A,,Clear,40,2013-05-20 14:50:00
8:10 AM,48.2,28.4,46,30.30,10.0,NE,6.9,-,N/A,,Clear,40,2013-05-20 15:10:00
8:30 AM,50.0,28.4,43,30.30,10.0,Calm,Calm,-,N/A,,Clear,0,2013-05-20 15:30:00
8:50 AM,50.0,28.4,43,30.30,10.0,NNE,5.8,-,N/A,,Clear,30,2013-05-20 15:50:00
9:10 AM,50.0,28.4,43,30.30,10.0,North,4.6,-,N/A,,Clear,350,2013-05-20 16:10:00
9:30 AM,53.6,28.4,38,30.29,10.0,ENE,3.5,-,N/A,,Clear,70,2013-05-20 16:30:00
9:50 AM,53.6,28.4,38,30.28,10.0,ENE,9.2,-,N/A,,Clear,60,2013-05-20 16:50:00
10:10 AM,55.4,28.4,36,30.27,10.0,North,6.9,-,N/A,,Clear,360,2013-05-20 17:10:00
10:30 AM,55.4,26.6,33,30.27,10.0,North,8.1,-,N/A,,Clear,10,2013-05-20 17:30:00
10:50 AM,57.2,26.6,31,30.27,10.0,NNE,10.4,-,N/A,,Clear,30,2013-05-20 17:50:00
11:30 AM,59.0,26.6,29,30.26,10.0,North,3.5,-,N/A,,Clear,10,2013-05-20 18:30:00
11:50 AM,59.0,26.6,29,30.26,10.0,WSW,4.6,-,N/A,,Clear,240,2013-05-20 18:50:00
12:10 PM,60.8,26.6,27,30.25,10.0,NE,8.1,-,N/A,,Clear,50,2013-05-20 19:10:00
12:30 PM,60.8,26.6,27,30.25,10.0,East,3.5,-,N/A,,Clear,80,2013-05-20 19:30:00
12:50 PM,62.6,26.6,26,30.24,10.0,NNE,6.9,-,N/A,,Clear,20,2013-05-20 19:50:00
1:10 PM,62.6,26.6,26,30.24,10.0,Calm,Calm,-,N/A,,Clear,0,2013-05-20 20:10:00
1:30 PM,64.4,26.6,24,30.23,10.0,NE,6.9,-,N/A,,Clear,40,2013-05-20 20:30:00
1:50 PM,64.4,26.6,24,30.23,10.0,Calm,Calm,-,N/A,,Clear,0,2013-05-20 20:50:00
2:10 PM,66.2,26.6,23,30.23,10.0,Calm,Calm,-,N/A,,Clear,0,2013-05-20 21:10:00
2:30 PM,66.2,26.6,23,30.22,10.0,North,6.9,-,N/A,,Clear,350,2013-05-20 21:30:00
2:50 PM,66.2,24.8,21,30.21,10.0,NNW,8.1,-,N/A,,Clear,340,2013-05-20 21:50:00
3:10 PM,66.2,23.0,19,30.20,10.0,Calm,Calm,-,N/A,,Clear,0,2013-05-20 22:10:00
3:30 PM,68.0,24.8,20,30.20,10.0,North,3.5,-,N/A,,Clear,350,2013-05-20 22:30:00
3:50 PM,66.2,24.8,21,30.19,10.0,North,8.1,-,N/A,,Clear,360,2013-05-20 22:50:00
4:10 PM,66.2,24.8,21,30.18,10.0,Calm,Calm,-,N/A,,Clear,0,2013-05-20 23:10:00
4:30 PM,68.0,24.8,20,30.17,10.0,East,8.1,-,N/A,,Clear,80,2013-05-20 23:30:00
4:50 PM,68.0,24.8,20,30.17,10.0,Calm,Calm,-,N/A,,Clear,0,2013-05-20 23:50:00
5:10 PM,68.0,23.0,18,30.16,10.0,Calm,Calm,-,N/A,,Clear,0,2013-05-21 00:10:00
5:30 PM,68.0,23.0,18,30.16,10.0,Calm,Calm,-,N/A,,Clear,0,2013-05-21 00:30:00
5:50 PM,68.0,23.0,18,30.15,10.0,NE,5.8,-,N/A,,Clear,50,2013-05-21 00:50:00
6:10 PM,66.2,23.0,19,30.15,10.0,East,4.6,-,N/A,,Clear,80,2013-05-21 01:10:00
6:30 PM,66.2,24.8,21,30.14,10.0,North,6.9,-,N/A,,Clear,10,2013-05-21 01:30:00
6:50 PM,66.2,23.0,19,30.14,10.0,North,4.6,-,N/A,,Clear,360,2013-05-21 01:50:00
7:10 PM,64.4,24.8,22,30.14,10.0,North,6.9,-,N/A,,Clear,10,2013-05-21 02:10:00
7:30 PM,62.6,24.8,24,30.14,10.0,North,5.8,-,N/A,,Clear,10,2013-05-21 02:30:00
7:50 PM,57.2,26.6,31,30.14,10.0,NNE,5.8,-,N/A,,Clear,20,2013-05-21 02:50:00
8:10 PM,53.6,30.2,41,30.14,10.0,NNE,5.8,-,N/A,,Clear,20,2013-05-21 03:10:00
8:30 PM,51.8,32.0,47,30.14,10.0,Calm,Calm,-,N/A,,Clear,0,2013-05-21 03:30:00
8:50 PM,50.0,32.0,50,30.15,10.0,Calm,Calm,-,N/A,,Clear,0,2013-05-21 03:50:00
9:10 PM,53.6,30.2,41,30.15,10.0,Calm,Calm,-,N/A,,Clear,0,2013-05-21 04:10:00
9:30 PM,48.2,26.6,43,30.15,10.0,Calm,Calm,-,N/A,,Clear,0,2013-05-21 04:30:00
9:50 PM,46.4,24.8,43,30.15,10.0,SSW,6.9,-,N/A,,Clear,200,2013-05-21 04:50:00
10:10 PM,46.4,24.8,43,30.15,10.0,Calm,Calm,-,N/A,,Clear,0,2013-05-21 05:10:00
10:30 PM,42.8,26.6,53,30.15,10.0,Calm,Calm,-,N/A,,Clear,0,2013-05-21 05:30:00
10:50 PM,41.0,24.8,53,30.15,10.0,Calm,Calm,-,N/A,,Clear,0,2013-05-21 05:50:00
11:10 PM,41.0,26.6,57,30.15,10.0,Calm,Calm,-,N/A,,Clear,0,2013-05-21 06:10:00
11:30 PM,44.6,24.8,46,30.14,10.0,Calm,Calm,-,N/A,,Clear,0,2013-05-21 06:30:00
11:50 PM,42.8,24.8,49,30.14,10.0,Calm,Calm,-,N/A,,Clear,0,2013-05-21 06:50:00